[[{"header":{"parameterUnit":"m.s-1","parameterCategory":1,"la1":30.2991,"la2":30.254,"lo1":-89.0895,"lo2":-89.0444,"dy":0.0017,"dx":0.0017,"nx":28,"ny":28,"refTime":"2024-06-18T21:00:00:Z","depth":0,"parameterNumber":2,"parameterNumberName":"U-component_of_WINDS"},"data":[0,0,0,0,0,0,0,0,0,0,0,0,0,0,0,0,0,0,0,0,0,0,0,0,0,0,0,0,0,0,0,0,0,0,0,0,0,0,0,0,0,0,0,0,0,0,0,0,0,0,0,0,0,0,0,0,0,0,-8.4254,-8.4255,0,-8.43,-8.43,-8.4301,-8.4048,-8.4041,-8.4034,-8.4027,-8.4075,-8.4083,-8.4091,0,0,0,0,0,0,0,0,0,0,0,0,0,-8.395,-8.3957,-8.4254,-8.4255,-8.4256,-8.43,-8.43,-8.4301,-8.405,-8.4041,-8.4032,-8.4024,-8.4072,-8.4082,-8.4091,0,0,0,0,0,0,0,0,0,0,0,0,0,-8.4048,-8.3959,-8.4254,-8.4135,-8.4125,-8.4299,-8.43,-8.4301,-8.4051,-8.4041,-8.403,-8.402,-8.4069,-8.4081,-8.4093,-8.4384,0,0,-8.4129,-8.4135,0,0,0,0,0,0,0,0,-8.4043,-8.4059,-8.4152,-8.4144,-8.4133,-8.4157,-8.421,-8.4329,-8.4054,-8.408,-8.4027,-8.4014,-8.4111,-8.4119,-8.4151,-8.4386,-8.4388,-8.4131,-8.4138,-8.4143,-8.4146,0,0,0,0,0,0,0,-8.4036,-8.4056,-8.4272,-8.4154,-8.4142,-8.408,-8.4082,-8.4231,-8.4156,-8.4077,-8.4058,-8.4067,-8.4104,-8.4141,-8.4151,-8.4389,-8.413,-8.4141,-8.4148,-8.4153,-8.4862,-8.4873,0,0,0,0,0,0,-8.4045,-8.4052,-8.4271,-8.4273,-8.406,-8.4094,-8.4096,-8.416,-8.4153,-8.4142,-8.4076,-8.4055,-8.4125,-8.4137,-8.4151,-8.449,-8.4143,-8.4154,-8.4161,-8.4851,-8.4865,-8.4877,0,0,0,0,0,0,-8.404,-8.4067,-8.4269,-8.4158,-8.4179,-8.4111,-8.4185,-8.4167,-8.4203,-8.4153,-8.4138,-8.4128,-8.4117,-8.4134,-8.4327,-8.4488,-8.416,-8.417,-8.4837,-8.4855,-8.4871,-8.5171,0,0,0,0,0,0,-8.4032,-8.4067,-8.4177,-8.4162,-8.4186,-8.4445,-8.4195,-8.4176,-8.4224,-8.4197,-8.4197,-8.4187,-8.411,-8.4311,-8.4339,-8.4499,-8.418,-8.4822,-8.4845,-8.4865,-8.5146,-8.5196,-8.5239,0,0,0,0,0,-8.4022,-8.426,-8.4183,-8.4211,-8.4322,-8.4455,-8.4468,-8.4374,-8.4239,-8.4348,-8.4316,-8.4187,-8.4466,-8.4333,-8.4363,-8.4528,-8.4812,-8.4838,-8.4864,-8.5125,-8.5186,-8.5238,0,0,0,0,0,0,-8.4295,-8.4256,-8.4171,-8.4411,-8.4438,-8.4412,-8.4547,-8.4442,-8.4509,-8.448,-8.4361,-8.4364,-8.4577,-8.4571,-8.4423,-8.4808,-8.4615,-8.4649,-8.4804,-8.4861,-8.4907,-8.4903,-8.419,0,0,0,0,0,-8.4384,-8.4495,-8.4454,-8.467,-8.4688,-8.4617,-8.4671,-8.4596,-8.4619,-8.463,-8.4611,-8.4639,-8.4732,-8.4797,-8.488,-8.5145,-8.514,-8.5273,-8.532,-8.5358,-8.5388,-8.5526,-8.5584,-8.4963,-8.4963,-8.4963,0,0,-8.4567,-8.4559,-8.4637,-8.4725,-8.4737,-8.4854,-8.4627,-8.4762,-8.4847,-8.465,-8.483,-8.4818,-8.4841,-8.5071,-8.5171,-8.5073,-8.5559,-8.5391,-8.5422,-8.5431,-8.5559,-8.5617,-8.567,-8.4981,-8.4978,-8.4975,0,0,-8.4961,-8.4967,-8.5146,-8.5163,-8.5184,-8.5134,-8.5178,-8.5168,-8.5152,-8.5331,-8.5185,-8.5286,-8.545,-8.5472,-8.5505,-8.5907,-8.5791,-8.5938,-8.618,-8.6316,-8.6365,-8.6408,-8.655,-8.6602,-8.5968,-8.5969,-8.5969,0,-8.5186,-8.5357,-8.5252,-8.5396,-8.5438,-8.5265,-8.5445,-8.5467,-8.5515,-8.5548,-8.5438,-8.5639,-8.5643,-8.5874,-8.5973,-8.6006,-8.6051,-8.5936,-8.6366,-8.6408,-8.6446,-8.658,-8.6634,-8.5986,-8.5984,-8.5983,-8.5981,0,-8.5632,-8.5753,-8.5895,-8.5945,-8.6004,-8.6166,-8.6085,-8.6158,-8.6078,-8.6041,-8.6225,-8.6223,-8.6302,-8.6352,-8.6277,-8.6574,-8.6512,-8.6387,-8.619,-8.6525,-8.6649,-8.6699,-8.6012,-8.6005,-8.6,-8.5996,0,0,-8.6198,-8.6187,-8.6241,-8.6261,-8.6272,-8.6363,-8.6517,-8.6594,-8.6658,-8.6697,-8.6823,-8.6966,-8.6849,-8.6887,-8.6812,-8.6932,-8.7248,-8.679,-8.6789,-8.6874,-8.7574,-8.7667,-8.7728,-8.7172,-8.7181,-8.7189,-8.7571,0,-8.6581,-8.6843,-8.6753,-8.7019,-8.7129,-8.6965,-8.7099,-8.712,-8.709,-8.7178,-8.7144,-8.7246,-8.7086,-8.7107,-8.7218,-8.7187,-8.7387,-8.7158,-8.7287,-8.7293,-8.7284,-8.7793,-8.7892,-8.8253,-8.7619,-8.7627,-8.7633,0,-8.7063,-8.7121,-8.7398,-8.7389,-8.7431,-8.7554,-8.7616,-8.7703,-8.7724,-8.7693,-8.7736,-8.7635,-8.7785,-8.759,-8.7794,-8.764,-8.7688,-8.7681,-8.7692,-8.7699,-8.7482,-8.7812,-8.8366,-8.8419,-8.7709,-8.7703,-8.7697,0,-8.7446,-8.7594,-8.7777,-8.78,-8.7794,-8.7884,-8.7886,-8.7895,-8.7947,-8.8002,-8.8034,-8.8108,-8.8147,-8.8206,-8.8128,-8.7993,-8.8344,-8.8142,-8.8321,-8.8324,-8.8401,-8.8397,-8.8968,-8.8436,-8.8435,-8.8434,-8.8433,0,-8.7883,-8.8058,-8.7949,-8.8063,-8.8254,-8.815,-8.8342,-8.8326,-8.8336,-8.8443,-8.8307,-8.8411,-8.8302,-8.8395,-8.8336,-8.8513,-8.8533,-8.8511,-8.8493,-8.8523,-8.8525,-8.8551,-8.8523,-8.8448,-8.8445,-8.8442,-8.844,0,-8.8342,-8.8276,-8.8466,-8.8445,-8.8444,-8.8586,-8.8568,-8.8671,-8.8631,-8.8768,-8.8794,-8.8732,-8.8834,-8.8763,-8.8866,-8.8825,-8.9058,-8.9006,-8.9051,-8.9036,-8.9219,-8.9202,-8.9825,-8.99,-8.9322,-8.9328,-8.9332,0,-8.8624,-8.8755,-8.8748,-8.8809,-8.882,-8.8921,-8.8973,-8.8875,-8.8935,-8.8968,-8.9068,-8.9159,-8.9226,-8.9399,-8.9362,-8.944,-8.9387,-8.9601,-8.9398,-8.9423,-8.9388,-8.9381,-8.9392,-8.9641,-8.9648,-8.9653,-8.9658,0,-8.913,-8.9091,-8.917,-8.924,-8.9306,-8.9356,-8.9394,-8.9453,-8.9354,-8.9428,-8.9531,-8.9584,-8.9688,-8.978,-8.9844,-8.9845,-8.9737,-8.9722,-8.9767,-8.9798,-8.9818,-8.9807,-8.9161,-8.9708,-8.9703,-8.9699,-8.9696,-8.9694,-8.9507,-8.9615,-8.9627,-8.972,-8.9739,-8.9779,-8.9875,-8.9846,-8.9931,-9.0007,-8.9945,-9.0068,-9.0085,-9.0159,-9.0175,-9.0269,-9.0182,-9.0248,-9.0264,-9.0282,-9.0306,-8.9805,-9.0281,-9.028,-9.0278,-9.0277,-9.0276,0,-9.0004,-9.0004,-9.0091,-9.0149,-9.0223,-9.0113,-9.015,-9.0219,-9.0329,-9.0353,-9.0422,-9.0541,-9.0629,-9.06,-9.0679,-9.076,-9.0712,-9.0784,-9.0776,-9.0778,-9.0381,-9.0333,-9.0822,-9.0822,-9.0821,-9.0821,-9.0821,-9.0821,-9.0272,-9.0448,-9.0411,-9.0596,-9.0593,-9.0712,-9.0743,-9.0779,-9.0797,-9.0935,-9.1008,-9.0988,-9.0991,-9.1069,-9.1145,-9.1134,-9.1168,-9.1259,-9.123,-9.086,-9.0806,-9.0754,-9.0708,-9.1268,-9.1268,-9.1617,-9.1621,-9.1623]},{"header":{"parameterUnit":"m.s-1","parameterCategory":1,"la1":30.2991,"la2":30.254,"lo1":-89.0895,"lo2":-89.0444,"dy":0.0017,"dx":0.0017,"nx":28,"ny":28,"refTime":"2024-06-18T21:00:00:Z","depth":0,"parameterNumber":3,"parameterNumberName":"V-component_of_WINDS"},"data":[0,0,0,0,0,0,0,0,0,0,0,0,0,0,0,0,0,0,0,0,0,0,0,0,0,0,0,0,0,0,0,0,0,0,0,0,0,0,0,0,0,0,0,0,0,0,0,0,0,0,0,0,0,0,0,0,0,0,-0.9948,-0.9947,0,-0.9888,-0.9888,-0.9887,-0.9945,-0.9947,-0.995,-0.9952,-0.9882,-0.9878,-0.9874,0,0,0,0,0,0,0,0,0,0,0,0,0,-1.0103,-1.01,-0.9948,-0.9947,-0.9947,-0.9889,-0.9888,-0.9887,-0.9945,-0.9947,-0.995,-0.9953,-0.9884,-0.9879,-0.9874,0,0,0,0,0,0,0,0,0,0,0,0,0,-1.0038,-1.0099,-0.9948,-0.9969,-0.997,-0.9889,-0.9888,-0.9887,-0.9944,-0.9948,-0.9951,-0.9954,-0.9885,-0.9879,-0.9873,-0.9766,0,0,-0.9855,-0.9852,0,0,0,0,0,0,0,0,-1.0042,-1.0033,-0.9966,-0.9967,-0.9968,-0.9928,-0.9917,-0.9846,-0.9943,-0.9954,-0.9952,-0.9956,-0.9894,-0.9887,-0.9868,-0.9763,-0.976,-0.9854,-0.9851,-0.9848,-0.9846,0,0,0,0,0,0,0,-1.0046,-1.0035,-0.9924,-0.9965,-0.9966,-0.9978,-0.9973,-0.9904,-0.9905,-0.9953,-0.9957,-0.995,-0.9895,-0.9874,-0.9867,-0.9759,-0.9854,-0.9849,-0.9845,-0.9843,-0.9559,-0.9555,0,0,0,0,0,0,-1.005,-1.0039,-0.9926,-0.9922,-1.0015,-0.9972,-0.9966,-0.9937,-0.9906,-0.9904,-0.9947,-0.9953,-0.9883,-0.9874,-0.9865,-0.9734,-0.9848,-0.9842,-0.9839,-0.9562,-0.9558,-0.9553,0,0,0,0,0,0,-1.0053,-1.0039,-0.9929,-0.9982,-0.9969,-0.9966,-0.9933,-0.9934,-0.9913,-0.9901,-0.9901,-0.9925,-0.9885,-0.9873,-0.979,-0.9732,-0.984,-0.9834,-0.9567,-0.9561,-0.9556,-0.9473,0,0,0,0,0,0,-1.0057,-1.004,-1.0002,-0.9981,-0.9966,-0.9857,-0.9929,-0.9931,-0.9904,-0.9911,-0.9881,-0.9879,-0.9887,-0.9799,-0.9784,-0.9726,-0.983,-0.9572,-0.9564,-0.9557,-0.9481,-0.9465,-0.9452,0,0,0,0,0,-1.0063,-0.998,-0.9999,-0.9985,-0.9918,-0.9854,-0.9845,-0.9858,-0.9899,-0.9858,-0.985,-0.988,-0.9742,-0.979,-0.9774,-0.9713,-0.9576,-0.9567,-0.9558,-0.9488,-0.9468,-0.9452,0,0,0,0,0,0,-0.9991,-0.9977,-0.9999,-0.9908,-0.9882,-0.9864,-0.9813,-0.9837,-0.9797,-0.9805,-0.982,-0.9813,-0.9724,-0.9711,-0.9764,-0.9606,-0.9665,-0.9653,-0.9617,-0.9599,-0.9585,-0.9587,-0.9824,0,0,0,0,0,-0.9965,-0.9917,-0.9907,-0.9827,-0.9813,-0.9815,-0.9788,-0.98,-0.9773,-0.9761,-0.9747,-0.9717,-0.9667,-0.9633,-0.9586,-0.9481,-0.9473,-0.9431,-0.9417,-0.9405,-0.9392,-0.9331,-0.9311,-0.9524,-0.9524,-0.9525,0,0,-0.991,-0.9897,-0.9865,-0.9812,-0.9794,-0.974,-0.9805,-0.9747,-0.9706,-0.9752,-0.9671,-0.966,-0.9627,-0.9532,-0.9489,-0.9518,-0.9332,-0.9394,-0.9384,-0.9378,-0.932,-0.93,-0.9282,-0.9518,-0.9519,-0.952,0,0,-0.9781,-0.9768,-0.9699,-0.9679,-0.9651,-0.9653,-0.9636,-0.9615,-0.9609,-0.9531,-0.9563,-0.9513,-0.9427,-0.9401,-0.9377,-0.9238,-0.9262,-0.9222,-0.9144,-0.9085,-0.9068,-0.9053,-0.8999,-0.898,-0.9211,-0.9211,-0.9211,0,-0.9714,-0.9638,-0.9659,-0.9597,-0.9571,-0.9614,-0.9541,-0.952,-0.9477,-0.9456,-0.9491,-0.9382,-0.9363,-0.926,-0.9226,-0.9207,-0.9184,-0.9224,-0.907,-0.9055,-0.9041,-0.8989,-0.897,-0.9206,-0.9206,-0.9207,-0.9207,0,-0.9556,-0.9502,-0.9449,-0.9408,-0.9377,-0.931,-0.9317,-0.9282,-0.9298,-0.9295,-0.9211,-0.9191,-0.9139,-0.9117,-0.913,-0.9014,-0.9032,-0.9068,-0.9127,-0.9015,-0.8967,-0.8948,-0.9199,-0.92,-0.9202,-0.9203,0,0,-0.9377,-0.935,-0.933,-0.931,-0.9283,-0.924,-0.9174,-0.9126,-0.9093,-0.9063,-0.9004,-0.8931,-0.8963,-0.8935,-0.8946,-0.8895,-0.8781,-0.8936,-0.8936,-0.8904,-0.8646,-0.8616,-0.8593,-0.8799,-0.8795,-0.8792,-0.8647,0,-0.9244,-0.9132,-0.9148,-0.9038,-0.8986,-0.9026,-0.8968,-0.8942,-0.8938,-0.8891,-0.8886,-0.8831,-0.8881,-0.8863,-0.8815,-0.8805,-0.8728,-0.8816,-0.874,-0.8737,-0.8742,-0.8569,-0.8537,-0.8401,-0.8629,-0.8626,-0.8624,0,-0.9073,-0.9038,-0.8923,-0.8902,-0.8881,-0.8828,-0.8784,-0.8741,-0.8711,-0.8712,-0.8681,-0.8701,-0.8631,-0.8695,-0.8595,-0.8655,-0.8625,-0.8615,-0.861,-0.8599,-0.867,-0.8548,-0.8358,-0.8336,-0.8595,-0.8597,-0.8599,0,-0.8948,-0.8872,-0.8793,-0.8776,-0.8751,-0.8712,-0.8699,-0.8674,-0.8643,-0.8604,-0.8584,-0.8536,-0.8509,-0.847,-0.8475,-0.8522,-0.8372,-0.8438,-0.8366,-0.8366,-0.8329,-0.833,-0.8126,-0.8318,-0.8318,-0.8318,-0.8319,0,-0.8795,-0.8722,-0.8737,-0.8687,-0.8606,-0.8625,-0.8542,-0.8534,-0.8511,-0.8458,-0.849,-0.8439,-0.8451,-0.8399,-0.8403,-0.8318,-0.8306,-0.8301,-0.8302,-0.8295,-0.8295,-0.8272,-0.828,-0.8313,-0.8314,-0.8315,-0.8316,0,-0.864,-0.8648,-0.8563,-0.8546,-0.854,-0.848,-0.8464,-0.8416,-0.8415,-0.8347,-0.8332,-0.833,-0.827,-0.8273,-0.8206,-0.8208,-0.8101,-0.8116,-0.8111,-0.8112,-0.8039,-0.8044,-0.7809,-0.7777,-0.7994,-0.7992,-0.799,0,-0.8539,-0.8484,-0.8462,-0.843,-0.8415,-0.8363,-0.8333,-0.8349,-0.8315,-0.8277,-0.8232,-0.8177,-0.8132,-0.8035,-0.8024,-0.7972,-0.7982,-0.7904,-0.7974,-0.7968,-0.7975,-0.7976,-0.7968,-0.7888,-0.7885,-0.7884,-0.7882,0,-0.8357,-0.8364,-0.832,-0.8277,-0.824,-0.8206,-0.8175,-0.8146,-0.8159,-0.8118,-0.806,-0.8025,-0.7957,-0.7899,-0.7849,-0.7832,-0.7856,-0.7861,-0.784,-0.783,-0.7828,-0.7823,-0.8068,-0.7865,-0.7866,-0.7868,-0.7869,-0.7869,-0.8223,-0.8175,-0.8151,-0.81,-0.808,-0.805,-0.8003,-0.7997,-0.7949,-0.7896,-0.7909,-0.7841,-0.7811,-0.7747,-0.7725,-0.767,-0.7697,-0.7669,-0.7661,-0.7652,-0.7641,-0.7841,-0.7661,-0.7662,-0.7662,-0.7663,-0.7663,0,-0.8039,-0.8026,-0.798,-0.7936,-0.7895,-0.7928,-0.7895,-0.7857,-0.7798,-0.777,-0.7726,-0.7656,-0.7601,-0.7587,-0.7532,-0.749,-0.75,-0.7475,-0.7475,-0.747,-0.7623,-0.7643,-0.7468,-0.7468,-0.7468,-0.7468,-0.7468,-0.7468,-0.7938,-0.7857,-0.786,-0.7768,-0.7755,-0.7691,-0.7669,-0.764,-0.7618,-0.7539,-0.7494,-0.7487,-0.7463,-0.7407,-0.7355,-0.7353,-0.7328,-0.7298,-0.7298,-0.744,-0.746,-0.7478,-0.7497,-0.7294,-0.7293,-0.715,-0.7148,-0.7147]}]]